Houston, TX

3:36 PM CDT on September 28, 2016 (GMT -0500)
Hobby

Weather History for KHOU - March, 2014

Change the Weather History Date:

Tuesday, March 18, 2014

  Actual Average Record
Temperature  
Mean Temperature 60 °F 63 °F  
Max Temperature 77 °F 74 °F 90 °F (2013)
Min Temperature 43 °F 53 °F 27 °F (1892)
Degree Days  
Heating Degree Days 5 4  
Month to date heating degree days 182 100  
Since 1 July heating degree days 1662 1288  
Cooling Degree Days 0 2  
Month to date cooling degree days 11 34  
Year to date cooling degree days 45 72  
Growing Degree Days 10 (Base 50)    
Moisture  
Dew Point 51 °F    
Average Humidity 67    
Maximum Humidity 93    
Minimum Humidity 40    
Precipitation  
Precipitation 0.00 in 0.10 in 1.60 in (1904)
Month to date precipitation 2.21 2.00  
Year to date precipitation 5.56 8.58  
Sea Level Pressure  
Sea Level Pressure 29.84 in    
Wind  
Wind Speed 10 mph (South)    
Max Wind Speed 20 mph    
Max Gust Speed 30 mph    
Visibility 10 miles    
Events      
T = Trace of Precipitation, MM = Missing Value Source: NWS Daily Summary

Daily Weather History Graph

Daily Weather History Graph

Search for Another Location

Airport or City:

Trip Planner

Search our weather history database for the weather conditions in past years. The results will help you decide how hot, cold, wet, or windy it might be!

Date:

Astronomy

Mar. 18, 2014 Rise Set
Actual Time 7:27 AM CDT 7:31 PM CDT
Civil Twilight 7:03 AM CDT 7:55 PM CDT
Nautical Twilight 6:35 AM CDT 8:22 PM CDT
Astronomical Twilight 6:08 AM CDT 8:50 PM CDT
Moon 9:37 PM CDT (3/18) 8:27 AM CDT (3/18)
Length of Visible Light 12h 51m
Length of Day
12h 04m
Waning Gibbous, 96% of the Moon is Illuminated
Mar 18
Waning Gibbous
Mar 23
Last Quarter
Mar 30
New
Apr 7
First Quarter
Apr 15
Full

Hourly Weather History & Observations

Time (CDT) Temp. Dew Point Humidity Pressure Visibility Wind Dir Wind Speed Gust Speed Precip Events Conditions
12:53 AM 48.9 °F 43.0 °F 80% 29.87 in 10.0 mi SSE 8.1 mph - N/A   Partly Cloudy
1:53 AM 50.0 °F 44.1 °F 80% 29.86 in 10.0 mi South 6.9 mph - N/A   Partly Cloudy
2:53 AM 50.0 °F 44.1 °F 80% 29.85 in 10.0 mi South 6.9 mph - N/A   Partly Cloudy
3:53 AM 48.0 °F 44.1 °F 86% 29.84 in 10.0 mi SSE 6.9 mph - N/A   Partly Cloudy
4:53 AM 48.0 °F 45.0 °F 89% 29.83 in 10.0 mi SSE 5.8 mph - N/A   Partly Cloudy
5:53 AM 48.0 °F 45.0 °F 89% 29.83 in 10.0 mi SSE 3.5 mph - N/A   Partly Cloudy
6:53 AM 48.9 °F 46.0 °F 90% 29.83 in 10.0 mi SSE 5.8 mph - N/A   Partly Cloudy
7:53 AM 51.1 °F 46.9 °F 86% 29.82 in 10.0 mi South 8.1 mph - N/A   Partly Cloudy
8:53 AM 57.0 °F 48.9 °F 74% 29.85 in 10.0 mi South 8.1 mph - N/A   Partly Cloudy
9:53 AM 62.1 °F 51.1 °F 67% 29.87 in 10.0 mi South 12.7 mph 19.6 mph N/A   Clear
10:53 AM 66.0 °F 52.0 °F 60% 29.86 in 10.0 mi South 12.7 mph 23.0 mph N/A   Clear
11:53 AM 70.0 °F 51.1 °F 51% 29.86 in 10.0 mi South 18.4 mph 23.0 mph N/A   Partly Cloudy
12:53 PM 72.0 °F 53.1 °F 51% 29.85 in 10.0 mi South 19.6 mph 27.6 mph N/A   Partly Cloudy
1:53 PM 73.9 °F 54.0 °F 50% 29.83 in 10.0 mi SSW 16.1 mph 27.6 mph N/A   Partly Cloudy
2:53 PM 73.9 °F 54.0 °F 50% 29.81 in 10.0 mi SSW 18.4 mph 25.3 mph N/A   Scattered Clouds
3:53 PM 73.9 °F 55.0 °F 52% 29.80 in 10.0 mi South 16.1 mph 24.2 mph N/A   Scattered Clouds
4:53 PM 73.9 °F 55.0 °F 52% 29.79 in 10.0 mi South 18.4 mph 25.3 mph N/A   Scattered Clouds
5:53 PM 72.0 °F 55.9 °F 57% 29.81 in 10.0 mi South 17.3 mph 24.2 mph N/A   Scattered Clouds
6:53 PM 69.1 °F 55.9 °F 63% 29.82 in 10.0 mi South 12.7 mph - N/A   Scattered Clouds
7:53 PM 64.9 °F 55.9 °F 73% 29.82 in 10.0 mi SSE 11.5 mph 20.7 mph N/A   Scattered Clouds
8:53 PM 63.0 °F 55.9 °F 78% 29.86 in 10.0 mi South 4.6 mph - N/A   Partly Cloudy
9:53 PM 62.1 °F 57.0 °F 84% 29.89 in 10.0 mi SSE 3.5 mph - N/A   Scattered Clouds
10:53 PM 60.1 °F 55.9 °F 86% 29.91 in 10.0 mi SSE 5.8 mph - N/A   Partly Cloudy
11:53 PM 61.0 °F 57.9 °F 90% 29.90 in 10.0 mi SSE 9.2 mph - N/A   Partly Cloudy